Regional Weather Roundup
Issued by NWS

Home | Current Version | Previous Version | Text Only | Print | Product List | Glossary On
Versions: 1 2 3 4 5 6 7 8 9 10 11 12 13 14 15 16 17 18 19 20 21 22 23 24 25 26 27 28 29 30 31 32 33 34 35 36 37 38 39 40 41 42 43 44 45 46 47 48 49 50
000
ASUS44 KLIX 060111
RWRLA
LOUISIANA WEATHER ROUNDUP
NATIONAL WEATHER SERVICE NEW ORLEANS LA
800 PM CDT SUN JUL 05 2015

NOTE: "FAIR" INDICATES FEW OR NO CLOUDS BELOW 12,000 FEET WITH NO
      SIGNIFICANT WEATHER AND/OR OBSTRUCTIONS TO VISIBILITY.
      SKY/WX - SKY CONDITION AND SIGNIFICANT WEATHER.
      TMP - AIR TEMPERATURE.    DP   - DEWPOINT TEMPERATURE.
      RH  - RELATIVE HUMIDITY.  PRES - PRESSURE.
      HX  - HEAT INDEX.         WCI  - WIND CHILL INDEX.

*  THESE STATIONS ARE NOT NWS OR FAA STATIONS AND ARE NOT UNDER
   NWS QUALITY CONTROL.

LAZ040-048-061>063-065-066-069-060200-
SOUTHEAST LOUISIANA

CITY           SKY/WX    TMP DP  RH WIND       PRES   REMARKS
N.O. AUDUBON   NOT AVBL
N.O. INTL ARPT CLOUDY    73  68  84 E12       30.17F THUNDER
N.O. LAKEFRONT CLOUDY    77  69  76 E13       30.18F
N.O. DOWNTOWN* FAIR      75  68  78 E3G16     30.18F
RESERVE*       NOT AVBL
SLIDELL        TSTM      71  71 100 CALM      30.18F
BATON ROUGE    TSTM      70  67  90 E5        30.15F
BOOTHVILLE     HVY RAIN  72  69  90 NW30G45   30.20R FOG
BELLE CHASSE   CLOUDY    72  32  23 NE10G21   30.17F THUNDER
BOGALUSA*      RAIN      73  67  84 S6        30.18F
GALLIANO*      CLOUDY    75  71  87 NE7       30.18S
NEW ROADS*     FAIR     N/A N/A N/A E5        30.15S
GONZALES*      CLOUDY    72  70  94 N6        30.17R
HAMMOND*       RAIN      72  66  83 CALM      30.18R
HOUMA*         CLOUDY    73  71  95 NE15G22   30.16F
PORT FOURCHON* MOCLDY    79  70  73 NE20G35   30.17R HAZE

$$

LAZ041-044-053-054-060200-
SOUTHWEST LOUISIANA

CITY           SKY/WX    TMP DP  RH WIND       PRES   REMARKS
LAKE CHARLES   MOCLDY    84  75  74 S5        30.07R
LAFAYETTE      CLOUDY    75  70  84 NE10      30.13R
PATTERSON      CLOUDY    79  72  78 NE10      30.15R
SALT POINT       N/A     84  76  76 CALM      30.11R
NEW IBERIA     NOT AVBL
CHENAULT AIRPK CLEAR     84  75  74 S6        30.08R

$$

LAZ027-028-060200-
CENTRAL LOUISIANA

CITY           SKY/WX    TMP DP  RH WIND       PRES   REMARKS
FORT POLK      CLOUDY    76  71  85 E12       30.08R
ALEXANDRIA INT CLOUDY    72  69  90 E8        30.10R
ALEXANDRIA     CLOUDY    73  69  87 NE3       30.12S

$$

LAZ001-002-060200-
NORTHWEST LOUISIANA

CITY           SKY/WX    TMP DP  RH WIND       PRES   REMARKS
SHREVEPORT     TSTM      73  69  87 E15G23    30.07R
BARKSDALE AFB  CLOUDY    73  72  94 SE10      30.07S
DTN SHREVEPORT CLOUDY    75  70  84 SE13      30.07R

$$

LAZ014-016-060200-
NORTHEAST LOUISIANA

CITY           SKY/WX    TMP DP  RH WIND       PRES   REMARKS
MONROE         CLOUDY    71  68  90 SW10      30.07F
TALLULAH       CLOUDY    73  69  87 S8        30.10F

$$



USA.gov is the U.S. government's official web portal to all federal, state and local government web resources and services.